Hlavní strana
METAR-TAF:

METAR-TAF

Letiště :

Indianapolis, Indiana, Spojené státy americké

zeměpisná šířka: 39-49-30N, zeměpisná délka: 086-17-45W, výška: 250 m

Aktuální stav počasí

Zpráva byla vytvořena před 1 hodinou a 0 minutami, v 16:53 UTC
Bezvětří
Teplota 1°C
Vlhkost vzduchu 80%
Tlak 1022 hPa
Viditelnost: 11.3 km
Zataženo ve výšce 2900 ft

METAR: KEYE 181653Z AUTO 00000KT 7SM OVC029 01/M02 A3017 RMK AO2 SLP225 T00111022

Čas: 12:53 (17:53 UTC)


TAF: chybějící

Stav a předpovědi počasí z více než 4 000 letišť (zprávy METAR a TAF).

Červené a žluté tečky na mapě představují dostupné meteorologické stanice.

Když kurzor umístíte na tečku, zobrazí se název stanice.

Pak kliknutím zobrazíte stav a předpověď počasí.

Chcete-li změnit mapu, kliknutím na zelené tlačítko se znaménkem +mapu přiblížíte, kliknutím na zelené tlačítko se znaménkem – mapu oddálíte a kliknutím na zelené šipky přejdete na sousední mapy.


METAR-TAF: